TimeCST,TemperatureF,Dew PointF,Humidity,Sea Level PressureIn,VisibilityMPH,Wind Direction,Wind SpeedMPH,Gust SpeedMPH,PrecipitationIn,Events,Conditions,WindDirDegrees,DateUTC
12:35 AM,43.7,31.1,61,29.81,10.0,ENE,4.6,-,N/A,,Overcast,60,2013-03-05 06:35:00
12:55 AM,43.7,31.1,61,29.81,10.0,ENE,4.6,-,N/A,,Overcast,60,2013-03-05 06:55:00
1:15 AM,43.3,30.6,61,29.82,10.0,ENE,4.6,-,N/A,,Overcast,60,2013-03-05 07:15:00
1:35 AM,43.0,30.2,61,29.81,10.0,NE,3.5,-,N/A,,Overcast,50,2013-03-05 07:35:00
1:55 AM,41.9,30.4,64,29.81,10.0,NE,3.5,-,N/A,,Mostly Cloudy,40,2013-03-05 07:55:00
2:15 AM,41.7,30.6,65,29.81,10.0,Calm,Calm,-,N/A,,Overcast,0,2013-03-05 08:15:00
3:15 AM,42.1,30.2,63,29.80,10.0,Calm,Calm,-,N/A,,Overcast,0,2013-03-05 09:15:00
3:35 AM,41.9,30.6,64,29.80,10.0,Calm,Calm,-,N/A,,Overcast,0,2013-03-05 09:35:00
3:55 AM,41.5,31.1,66,29.80,10.0,Calm,Calm,-,N/A,,Overcast,0,2013-03-05 09:55:00
4:15 AM,41.4,32.0,69,29.81,10.0,NNW,3.5,-,N/A,,Overcast,330,2013-03-05 10:15:00
4:55 AM,40.8,32.9,73,29.82,10.0,NW,4.6,-,N/A,,Overcast,320,2013-03-05 10:55:00
5:15 AM,40.3,33.1,75,29.83,10.0,WNW,10.4,-,N/A,,Overcast,290,2013-03-05 11:15:00
5:35 AM,40.1,32.9,75,29.85,10.0,West,10.4,-,N/A,,Overcast,280,2013-03-05 11:35:00
7:50 AM,37.4,33.8,87,29.86,5.0,WNW,16.1,-,N/A,Rain,Light Rain,300,2013-03-05 13:50:00
8:50 AM,37.4,33.8,87,29.87,3.0,WNW,19.6,27.6,N/A,Rain,Light Rain,290,2013-03-05 14:50:00
9:20 AM,35.6,32.0,87,29.89,2.0,NW,17.3,27.6,N/A,Snow,Light Snow,310,2013-03-05 15:20:00
9:50 AM,35.6,32.0,87,29.90,1.0,NW,16.1,27.6,N/A,Snow,Light Snow,310,2013-03-05 15:50:00
10:58 AM,35.6,33.8,93,29.91,0.8,NW,16.1,-,N/A,Snow,Light Snow,310,2013-03-05 16:58:00
11:50 AM,35.6,33.8,93,29.91,5.0,NW,23.0,-,N/A,,Overcast,310,2013-03-05 17:50:00
12:50 PM,37.4,30.2,75,29.93,10.0,WNW,25.3,-,N/A,,Overcast,300,2013-03-05 18:50:00
1:50 PM,37.4,28.4,70,29.93,10.0,WNW,25.3,-,N/A,,Overcast,300,2013-03-05 19:50:00
2:50 PM,35.6,24.8,65,29.95,10.0,WNW,28.8,40.3,N/A,,Overcast,300,2013-03-05 20:50:00
3:50 PM,35.6,23.0,60,29.98,10.0,WNW,23.0,-,N/A,,Overcast,300,2013-03-05 21:50:00
4:50 PM,35.6,24.8,65,29.99,10.0,WNW,27.6,-,N/A,,Overcast,300,2013-03-05 22:50:00
6:50 PM,35.6,28.4,75,30.01,10.0,West,19.6,25.3,N/A,,Overcast,280,2013-03-06 00:50:00
8:55 PM,35.6,26.6,70,30.04,10.0,WNW,20.7,34.5,N/A,,Overcast,290,2013-03-06 02:55:00
9:15 PM,35.8,27.3,71,30.05,10.0,WNW,25.3,28.8,N/A,,Overcast,290,2013-03-06 03:15:00
9:35 PM,36.0,26.8,69,30.06,10.0,WNW,24.2,33.4,N/A,,Overcast,290,2013-03-06 03:35:00
9:55 PM,35.8,27.1,71,30.07,10.0,WNW,18.4,31.1,N/A,,Overcast,300,2013-03-06 03:55:00
10:15 PM,35.6,26.8,70,30.08,10.0,WNW,18.4,33.4,N/A,,Overcast,300,2013-03-06 04:15:00
10:35 PM,35.6,25.2,66,30.09,10.0,WNW,19.6,34.5,N/A,,Overcast,300,2013-03-06 04:35:00
10:55 PM,35.2,25.7,68,30.09,10.0,WNW,23.0,29.9,N/A,,Overcast,300,2013-03-06 04:55:00
11:15 PM,35.1,25.3,68,30.09,10.0,WNW,21.9,32.2,N/A,,Overcast,300,2013-03-06 05:15:00
11:35 PM,35.1,24.3,65,30.09,10.0,NW,18.4,31.1,N/A,,Overcast,310,2013-03-06 05:35:00
11:55 PM,35.1,23.7,63,30.10,10.0,WNW,17.3,28.8,N/A,,Overcast,300,2013-03-06 05:55:00